Temperature
10 10 9 9 9 9 9 9 9 9 9 9 9 9 9 9 9 9 9 9 9 9 8 9 8 8 8 8 8 8 9 9 8 8 7 7 7 7 7 7 7 7 7
9 9 9 9 8 8 8 8 8 8 8 8 8 8 8 8 8 8 8 8 8 8 8 8 8 8 8 8 8 8 8 8 8 8 7 7 7 7 7 7 7 7 7
8 8 8 8 8 8 7 7 8 8 7 8 8 7 7 7 7 7 7 7 7 7 7 7 7 7 7 7 7 7 7 7 7 8 8 7 7 7 7 7 7 7 7
7 7 7 7 7 7 7 7 7 7 7 7 7 7 6 6 6 6 6 6 6 6 6 6 6 7 7 7 6 7 7 7 7 7 7 7 7 7 7 7 7 7 7
7 7 6 6 6 6 6 6 6 6 6 6 6 6 6 6 6 6 6 6 6 6 6 6 6 6 6 6 6 7 7 7 7 7 7 7 7 6 6 6 6 7 7
6 6 6 6 6 6 6 6 6 6 6 6 6 6 6 6 6 6 6 6 6 6 6 6 6 6 6 6 6 6 6 7 7 7 6 6 6 6 6 6 6 6 6
6 6 6 6 6 6 6 6 6 5 5 5 5 6 6 6 6 6 5 6 6 6 6 6 6 6 6 6 6 6 6 6 6 6 6 6 6 6 6 6 6 6 6
6 6 6 6 6 6 5 5 5 5 5 5 5 6 6 6 6 5 5 5 5 6 6 6 6 6 6 6 6 6 6 6 6 6 6 6 6 6 6 6 6 6 6
6 6 6 6 6 5 5 5 5 5 5 5 5 5 5 6 6 6 6 6 6 6 6 6 6 6 6 6 6 6 6 6 6 6 6 6 6 6 6 6 6 6 6
6 6 6 6 5 5 5 5 5 5 5 5 5 5 5 5 6 6 6 6 6 6 6 6 6 6 6 6 6 6 6 6 6 6 6 7 7 6 6 6 6 6 6
6 6 6 6 6 5 5 5 5 5 5 5 5 5 5 6 6 6 6 6 6 6 6 6 6 6 6 6 6 6 6 6 6 7 7 7 7 7 7 6 6 6 6
6 6 6 6 6 5 5 5 5 6 5 5 5 5 5 6 6 6 6 6 6 6 6 6 6 6 6 6 6 6 6 6 7 7 7 7 7 7 7 7 7 7 6
6 6 6 6 6 6 6 6 6 6 6 6 6 6 5 5 6 6 6 6 6 6 6 6 6 6 6 6 6 6 6 6 6 7 7 7 7 7 7 7 7 7 7
6 6 6 6 6 6 6 6 6 6 6 6 6 6 5 5 5 5 5 5 6 6 6 6 6 6 6 6 6 6 6 6 6 6 7 7 7 7 7 7 7 7 7
6 6 6 6 6 6 6 6 6 6 6 6 6 6 5 5 5 5 6 6 6 6 6 6 6 6 6 6 6 6 6 6 6 6 7 7 7 7 7 7 7 7 7
6 6 6 6 6 6 5 5 6 6 6 6 6 6 6 6 5 5 6 6 6 6 6 6 6 6 6 6 6 6 6 6 6 6 7 7 7 7 7 7 7 7 7
6 6 6 6 6 6 6 5 5 5 5 5 5 5 5 5 5 5 6 6 6 6 6 6 6 6 6 6 6 6 6 6 6 6 7 7 7 7 7 7 7 7 7
6 6 6 6 6 6 6 6 6 5 5 5 5 5 5 5 5 5 6 6 6 6 6 6 6 6 6 6 6 6 6 6 6 6 6 6 7 7 7 7 7 7 8
7 6 7 7 7 6 6 6 6 6 6 5 5 5 5 5 5 5 6 6 6 6 6 5 5 5 5 5 6 6 6 6 6 6 6 6 6 7 7 7 7 8 8
7 7 7 7 7 7 6 6 6 6 6 6 6 6 6 6 6 6 6 6 6 5 5 5 5 5 5 5 5 5 6 6 6 6 6 6 6 6 7 7 7 8 8
7 7 7 7 7 7 7 7 6 6 6 6 6 6 6 6 6 6 6 5 5 5 5 5 5 5 5 5 5 5 5 5 5 5 5 6 6 6 7 7 7 8 8
7 7 7 7 7 7 7 7 7 6 6 6 6 6 6 6 6 6 6 5 5 5 4 4 4 4 4 4 4 4 4 5 5 5 5 5 6 6 7 7 7 7 8
8 8 7 7 7 7 7 7 7 7 6 6 6 6 6 6 6 6 5 5 5 5 4 4 4 4 4 4 4 4 4 4 4 5 5 5 5 6 6 7 7 7 7
8 8 8 7 7 7 7 7 7 7 7 7 7 7 6 6 6 6 5 5 5 5 4 4 4 4 3 3 3 4 4 4 4 5 5 5 5 6 6 7 7 7 7
8 8 8 8 8 7 7 7 7 7 7 7 7 7 7 6 6 6 5 5 5 5 4 4 4 4 3 3 4 4 4 4 4 5 5 5 5 6 6 7 7 7 7
9 9 8 8 8 8 8 8 8 7 7 7 7 7 7 7 6 6 6 5 5 5 4 4 4 4 4 4 4 4 4 4 5 5 5 5 5 6 6 6 7 7 7
Wind_Speed
12 12 12 12 12 12 11 11 10 9 9 10 10 10 10 10 9 9 9 9 9 9 9 9 9 8 7 6 5 5 5 5 4 3 3 2 1 0 2 5 5 4 4
12 12 12 12 12 12 12 10 10 10 9 9 9 10 10 9 8 9 9 9 9 10 9 9 9 8 8 7 5 6 5 4 4 3 2 2 1 1 2 4 4 2 3
12 13 12 12 12 11 10 10 9 9 9 9 9 9 9 8 8 8 9 9 9 9 9 9 9 8 8 6 6 6 5 4 2 1 1 1 0 1 2 3 3 2 4
12 12 12 10 10 9 9 8 8 8 9 9 9 9 9 9 9 8 8 8 8 8 8 8 8 8 7 7 7 7 6 4 3 2 2 2 2 3 3 3 3 2 3
11 12 10 9 8 8 8 8 8 8 10 9 9 9 10 10 9 8 6 8 7 7 7 7 7 7 7 6 6 6 7 6 5 5 4 4 4 4 4 4 4 3 2
10 11 10 8 8 8 8 8 8 8 9 9 10 10 11 9 11 13 9 6 6 6 5 5 6 5 4 3 3 3 4 5 5 5 5 5 5 5 4 4 4 4 3
9 9 9 8 8 8 8 8 8 8 8 9 9 10 9 10 13 14 12 5 6 6 6 5 7 8 9 6 3 2 2 2 1 1 4 4 4 5 5 5 5 5 4
9 9 8 8 9 8 8 8 7 7 7 7 8 8 8 9 12 13 13 3 4 5 6 7 7 8 8 8 6 4 3 2 1 1 2 3 3 3 4 5 6 5 3
9 8 7 8 8 8 8 7 6 6 6 7 7 7 7 7 10 11 11 2 4 6 7 8 7 7 9 11 7 6 6 5 4 3 5 7 9 9 6 4 5 5 3
8 8 7 7 7 7 7 6 5 5 6 7 7 7 7 6 7 10 11 2 4 5 6 7 9 7 8 10 7 6 6 6 7 7 6 7 7 7 6 4 3 4 3
8 7 7 6 6 6 5 4 4 5 6 6 7 7 6 5 5 8 10 6 5 3 4 5 4 6 7 8 6 4 4 6 7 6 4 3 2 1 1 2 1 1 2
7 7 6 4 6 7 5 4 4 5 5 5 6 6 5 4 5 5 8 8 6 5 5 4 3 3 6 7 6 7 11 9 4 3 3 3 3 3 2 3 2 2 3
7 6 5 6 6 5 4 3 3 3 4 5 5 5 6 5 3 4 5 6 7 4 3 3 3 5 6 5 6 9 8 5 4 4 4 3 3 2 2 2 3 4 6
6 6 5 5 5 4 3 3 4 4 3 3 4 5 6 5 5 4 3 2 2 3 3 3 6 8 7 7 6 4 2 2 3 3 4 4 3 3 2 2 2 2 2
5 5 5 5 6 7 8 8 8 8 7 6 6 5 5 6 4 5 5 5 5 6 7 4 2 2 1 1 1 2 2 2 3 3 3 4 4 3 3 2 2 3 2
5 4 4 4 5 6 7 8 12 9 10 13 11 8 6 6 3 5 7 8 9 10 7 3 3 4 4 4 4 3 3 3 4 4 4 4 4 4 4 3 3 3 3
4 3 3 4 5 5 6 7 6 5 8 8 8 8 6 3 2 4 7 10 11 8 4 2 3 3 4 4 4 4 4 3 3 4 4 4 4 5 5 4 3 3 4
5 5 4 3 4 5 5 6 7 7 5 4 2 1 1 1 3 5 7 7 5 2 1 3 3 3 3 4 4 4 4 4 4 4 4 4 4 4 5 5 4 3 4
3 4 3 3 4 4 4 3 4 5 5 5 5 4 4 5 6 8 6 3 2 3 3 3 3 3 4 4 3 3 3 3 3 4 4 5 5 5 5 5 5 6 4
4 4 3 3 4 4 4 3 4 4 4 4 3 3 4 5 4 3 2 1 3 4 4 4 3 2 3 4 4 4 4 4 4 4 5 5 5 5 6 6 5 5 4
6 6 4 3 4 3 3 3 4 3 4 3 2 3 2 2 1 1 2 3 4 3 3 4 4 3 4 4 5 6 6 5 5 6 7 6 6 6 6 6 6 5 5
5 7 5 4 5 4 3 3 3 3 3 4 4 4 2 3 1 2 2 2 3 3 4 3 4 5 6 5 5 5 6 7 7 7 8 8 8 7 6 6 6 5 5
5 6 5 5 4 5 4 3 3 3 3 2 2 3 3 0 2 2 2 2 2 3 4 3 4 6 7 7 8 8 7 7 6 7 7 8 9 9 7 6 7 7 5
6 6 6 5 5 5 5 4 4 4 4 3 2 2 2 2 1 1 1 2 2 3 4 4 4 5 6 7 8 10 9 8 8 9 10 8 10 9 7 7 6 6 5
6 6 6 6 5 5 4 4 4 4 4 3 3 2 2 2 2 2 2 2 2 3 2 3 5 6 7 9 9 8 9 10 10 10 10 10 9 9 8 8 6 5 5
6 6 6 5 5 5 5 4 4 4 3 3 3 2 1 2 2 2 2 2 1 3 3 4 4 6 7 8 7 8 10 11 12 14 12 10 8 7 7 7 8 6 6
Wind_Direction
76 79 82 84 85 85 84 86 88 88 87 85 84 81 78 75 74 77 79 76 75 71 69 67 60 46 35 34 36 46 48 58 83 90 110 138 158 293 325 303 286 240 208
77 78 79 81 83 84 85 85 86 86 85 84 83 82 81 78 74 77 80 76 74 70 65 60 55 53 44 33 33 47 50 50 66 83 125 153 189 204 261 277 291 308 225
84 82 80 80 82 84 84 84 83 83 83 81 80 81 81 78 75 76 78 76 72 69 65 62 57 48 40 32 35 35 37 46 43 59 108 116 106 17 323 313 326 331 323
85 85 83 84 86 89 90 89 88 87 85 82 78 76 74 68 64 65 78 78 76 73 69 64 60 53 38 18 39 30 26 16 13 21 46 51 43 12 5 346 344 350 346
91 90 89 91 93 92 90 86 84 84 84 81 79 74 68 60 48 44 67 83 79 81 84 82 80 79 63 41 46 29 22 21 21 19 30 37 31 18 10 347 1 351 349
95 97 99 98 94 91 89 86 82 79 80 78 74 72 66 57 39 36 41 63 72 73 79 94 105 88 79 67 47 33 26 33 26 17 23 21 18 13 358 351 357 353 342
101 101 101 99 94 91 92 89 86 83 82 83 84 81 73 49 35 28 20 41 68 62 54 54 67 58 40 24 353 268 236 234 244 9 9 3 9 11 353 344 340 329 307
101 99 98 98 96 94 92 88 84 84 85 87 90 88 79 52 33 21 5 45 86 77 62 55 65 57 31 7 353 18 54 81 227 222 355 340 350 347 336 318 308 312 305
101 97 93 92 96 97 96 93 91 94 96 95 96 95 87 62 33 20 2 17 92 84 73 54 56 60 26 9 8 25 34 19 16 330 291 287 288 289 292 318 331 349 347
110 103 96 94 94 95 98 103 107 110 110 105 100 94 87 74 36 22 3 19 98 104 103 90 67 52 27 17 13 17 19 358 341 326 302 285 271 266 250 236 301 340 350
108 107 103 102 101 97 97 105 114 106 102 104 106 100 92 85 67 37 27 28 31 70 97 92 71 39 19 4 355 356 342 315 305 304 308 310 306 278 205 232 260 345 357
113 110 106 100 102 101 94 94 107 120 125 126 126 122 115 105 74 53 36 35 24 39 56 67 71 5 346 333 329 323 324 317 301 330 354 5 9 8 351 333 323 304 270
115 113 110 100 95 104 115 129 143 155 146 140 134 128 121 111 92 46 25 26 24 33 33 7 310 300 310 299 281 299 314 327 354 358 354 351 339 318 301 303 280 271 272
126 125 120 116 112 97 70 70 61 54 73 100 106 109 108 88 61 33 17 39 19 27 350 297 275 273 275 284 293 287 286 342 351 341 339 332 324 321 319 318 312 298 295
128 128 126 112 100 85 69 54 66 55 53 54 56 73 82 80 49 27 21 18 10 7 336 304 274 307 336 9 357 348 348 7 360 347 339 332 334 340 328 321 325 322 324
131 134 130 129 129 123 113 88 61 74 71 67 63 72 82 88 85 26 11 357 351 353 344 339 20 13 8 10 4 6 27 32 4 344 342 345 344 340 340 342 350 339 329
129 127 128 132 137 135 134 129 120 90 65 64 66 72 83 90 38 353 343 336 323 327 326 359 34 18 8 4 5 10 11 9 348 333 345 352 348 343 340 342 348 341 330
143 135 139 140 133 129 137 146 148 147 142 132 117 127 156 281 302 305 316 321 305 280 8 33 25 17 13 5 3 5 355 348 355 349 348 345 341 338 336 334 331 335 322
147 140 135 127 127 129 134 129 130 139 143 147 155 179 224 250 276 282 296 293 337 39 35 32 24 17 6 353 347 346 336 333 349 338 335 340 340 336 332 328 327 330 315
116 109 130 141 134 134 137 135 129 132 136 145 165 166 178 208 233 238 225 346 34 48 30 8 3 8 8 349 349 357 358 352 357 355 353 349 341 334 330 326 323 322 321
154 146 169 158 134 137 142 138 136 138 136 135 121 87 23 282 224 100 72 58 53 47 47 356 338 12 28 15 15 357 346 1 18 12 357 344 335 327 320 319 325 332 336
164 161 164 149 142 140 140 144 142 145 151 160 163 159 201 276 21 74 68 56 62 52 60 11 351 31 36 20 1 344 1 23 19 8 348 333 328 326 326 327 331 330 338
171 160 149 145 144 141 172 170 163 164 167 181 176 166 174 189 67 86 85 78 74 60 51 27 17 39 36 18 2 22 32 22 357 340 330 326 327 323 321 325 328 334 347
169 162 154 157 166 173 177 171 181 181 175 183 182 163 141 144 117 104 95 91 85 74 62 48 39 44 39 33 36 48 32 5 346 331 327 318 311 310 319 324 323 335 341
174 162 159 162 170 171 173 181 184 185 183 181 178 174 163 165 159 144 121 116 127 99 78 73 58 51 41 53 47 32 8 360 353 340 323 308 306 313 322 324 327 332 347
175 164 164 165 169 175 182 186 188 190 188 181 171 161 182 177 139 121 123 106 107 124 105 93 86 77 65 65 45 18 6 360 352 343 327 303 302 312 328 331 337 349 360
Height
1496 1497 1497 1499 1502 1503 1505 1507 1509 1511 1513 1514 1515 1516 1518 1520 1522 1523 1524 1526 1527 1529 1531 1532 1533 1534 1536 1537 1538 1539 1539 1540 1542 1543 1544 1544 1544 1543 1542 1541 1540 1540 1538
1500 1501 1502 1504 1506 1507 1509 1511 1513 1515 1516 1517 1518 1520 1522 1523 1525 1526 1528 1529 1530 1531 1533 1534 1535 1536 1537 1538 1539 1540 1540 1541 1543 1544 1544 1544 1544 1544 1543 1542 1541 1540 1538
1504 1505 1507 1508 1510 1512 1514 1515 1517 1518 1519 1521 1522 1524 1525 1527 1528 1530 1531 1532 1533 1534 1535 1536 1537 1538 1538 1539 1540 1540 1541 1543 1544 1544 1545 1545 1545 1544 1543 1542 1541 1540 1539
1509 1510 1511 1513 1515 1516 1518 1519 1521 1522 1523 1524 1526 1527 1529 1530 1531 1533 1534 1535 1536 1537 1537 1538 1539 1540 1541 1541 1542 1542 1542 1543 1544 1545 1546 1545 1545 1544 1543 1542 1541 1540 1539
1513 1514 1516 1518 1519 1521 1522 1523 1524 1526 1526 1527 1529 1530 1531 1533 1534 1536 1537 1538 1539 1540 1540 1541 1542 1543 1543 1543 1543 1544 1544 1544 1545 1545 1546 1545 1545 1544 1543 1542 1541 1540 1538
1518 1519 1521 1522 1523 1524 1525 1526 1527 1528 1529 1531 1532 1533 1534 1536 1538 1539 1540 1541 1542 1543 1543 1544 1545 1545 1545 1545 1545 1546 1546 1546 1546 1546 1546 1545 1545 1544 1543 1542 1540 1539 1538
1522 1523 1525 1526 1527 1528 1529 1530 1531 1532 1533 1534 1535 1536 1537 1539 1541 1542 1542 1543 1544 1545 1546 1547 1548 1547 1547 1547 1547 1547 1547 1547 1548 1547 1546 1546 1545 1544 1542 1541 1540 1539 1538
1526 1527 1529 1530 1530 1531 1532 1533 1534 1535 1536 1537 1538 1539 1540 1542 1543 1544 1545 1546 1547 1548 1548 1548 1548 1548 1548 1548 1548 1549 1549 1549 1548 1548 1547 1546 1545 1544 1542 1541 1540 1539 1538
1529 1531 1532 1533 1534 1535 1536 1536 1538 1539 1540 1541 1541 1543 1543 1544 1546 1547 1547 1549 1550 1550 1550 1551 1551 1550 1550 1550 1549 1549 1549 1549 1549 1549 1548 1547 1546 1544 1543 1541 1540 1539 1537
1533 1534 1535 1536 1537 1538 1538 1539 1541 1542 1543 1544 1545 1545 1546 1547 1548 1549 1550 1551 1552 1552 1552 1553 1553 1552 1552 1551 1551 1550 1550 1550 1549 1549 1548 1547 1546 1545 1543 1542 1541 1539 1538
1535 1536 1538 1539 1540 1540 1541 1542 1544 1545 1546 1547 1547 1548 1549 1550 1551 1552 1552 1553 1554 1554 1555 1555 1554 1554 1553 1553 1552 1551 1551 1551 1550 1549 1548 1547 1547 1545 1544 1543 1541 1540 1538
1537 1539 1541 1542 1543 1543 1544 1545 1546 1547 1548 1549 1550 1551 1552 1553 1554 1554 1555 1555 1555 1556 1556 1556 1556 1556 1555 1554 1554 1553 1553 1552 1551 1550 1549 1548 1547 1546 1544 1543 1542 1540 1539
1540 1542 1543 1544 1545 1546 1547 1548 1549 1550 1551 1552 1553 1554 1555 1556 1556 1557 1557 1557 1558 1558 1558 1558 1557 1557 1556 1555 1555 1554 1553 1553 1552 1551 1550 1549 1547 1546 1545 1543 1542 1541 1539
1542 1544 1545 1547 1548 1549 1550 1551 1551 1552 1553 1555 1556 1556 1557 1557 1558 1558 1558 1558 1559 1559 1559 1559 1558 1558 1557 1556 1556 1555 1554 1554 1553 1552 1551 1549 1548 1547 1545 1544 1543 1541 1540
1544 1546 1548 1549 1550 1550 1551 1552 1553 1554 1555 1556 1557 1558 1558 1558 1559 1559 1559 1559 1559 1560 1560 1560 1559 1559 1558 1558 1557 1556 1555 1555 1554 1553 1552 1550 1549 1548 1546 1545 1543 1542 1540
1546 1548 1549 1550 1552 1553 1553 1554 1555 1556 1557 1558 1559 1559 1559 1560 1560 1560 1560 1560 1561 1561 1561 1561 1560 1560 1559 1559 1558 1557 1556 1555 1555 1554 1553 1551 1550 1548 1547 1545 1544 1542 1540
1548 1550 1551 1552 1554 1555 1555 1556 1557 1558 1559 1559 1560 1560 1560 1560 1561 1561 1561 1562 1562 1562 1562 1562 1561 1561 1560 1559 1559 1558 1557 1556 1555 1554 1553 1552 1551 1549 1548 1546 1544 1542 1541
1550 1551 1553 1554 1555 1556 1557 1558 1559 1559 1560 1561 1562 1562 1562 1562 1562 1563 1563 1563 1563 1563 1563 1562 1562 1561 1560 1560 1559 1558 1557 1556 1556 1555 1554 1553 1551 1550 1548 1547 1545 1543 1541
1551 1552 1554 1555 1556 1557 1558 1559 1560 1561 1562 1563 1563 1563 1564 1564 1564 1564 1564 1564 1564 1564 1563 1563 1562 1561 1560 1560 1559 1558 1557 1556 1556 1555 1554 1553 1551 1550 1548 1547 1545 1543 1541
1552 1553 1555 1556 1557 1559 1560 1561 1562 1563 1563 1564 1565 1565 1565 1565 1565 1565 1565 1565 1564 1564 1563 1563 1562 1561 1560 1559 1558 1558 1557 1556 1555 1555 1554 1553 1552 1550 1549 1547 1545 1543 1541
1553 1554 1555 1557 1558 1559 1560 1561 1562 1563 1564 1565 1565 1565 1565 1566 1566 1566 1566 1565 1564 1564 1563 1562 1562 1561 1560 1559 1557 1557 1556 1556 1555 1553 1553 1552 1551 1550 1549 1547 1545 1543 1541
1554 1555 1556 1558 1559 1560 1561 1562 1563 1564 1565 1565 1566 1566 1566 1566 1566 1566 1566 1565 1564 1563 1563 1562 1561 1560 1558 1557 1556 1556 1555 1554 1553 1552 1552 1551 1551 1550 1549 1547 1546 1543 1541
1554 1555 1557 1558 1559 1560 1561 1562 1563 1564 1565 1565 1566 1566 1566 1566 1566 1566 1565 1565 1564 1563 1562 1562 1561 1559 1557 1556 1555 1554 1553 1553 1552 1552 1551 1551 1550 1549 1549 1547 1546 1544 1542
1554 1556 1557 1558 1559 1560 1561 1562 1563 1564 1565 1565 1566 1566 1566 1566 1566 1565 1565 1564 1564 1563 1562 1561 1560 1559 1557 1556 1555 1553 1553 1552 1552 1551 1551 1551 1550 1549 1548 1547 1546 1544 1542
1554 1556 1557 1558 1559 1560 1561 1562 1563 1564 1565 1565 1566 1566 1566 1566 1565 1565 1565 1564 1563 1563 1562 1561 1560 1558 1557 1555 1554 1553 1552 1552 1551 1551 1551 1551 1550 1549 1548 1547 1546 1544 1543
1554 1555 1557 1558 1559 1560 1561 1562 1563 1563 1564 1565 1565 1565 1566 1566 1565 1565 1564 1564 1564 1563 1562 1561 1559 1558 1556 1555 1554 1553 1553 1552 1552 1552 1552 1551 1550 1550 1548 1547 1546 1545 1543